Location: ??
(35.4824°N, 139.4679°E)
Time: 08:15:28
(UTC+00:00)

ATLAS CENTAUR Rocket - Pass Details

Date: 29 October 2020
Orbit: 648 x 36599 km, 28.3° (Epoch: 02 December)

Event Time Altitude Azimuth Distance (km) Brightness Sun altitude
Exits shadow 19:16:30 12° 201° (SSW) 2,088 4.1 -22.0°
Drops below altitude 10° 19:17:22 10° 188° (S) 2,144 4.3 -21.8°
Sets 19:20:18 0° 155° (SSE) 2,946 5.4 -21.2°
